www.pogodaiklimat.ru

Погода и климат >> Архив погоды >> Россия >> Костромская область >> Пыщуг


ПОГОДА в Пыщуге

  • Прогноз погоды в Пыщуге
  • Монитор погоды в Пыщуге

АРХИВ ПОГОДЫ в Пыщуге

Время (UTC), дата Ветер
(напр.,м/с)
 
Видим.   Явления Облачность Т
(С)
Тd
(С)
f
(%)
Тe
(С)
Тes
(С)
Комфортность P
(гПа)
Po
(гПа)
Тmin
(С)
Tmax
(С)
R
(мм)
R24
(мм)
S
(см)
12 11.02 ЮЗ 3 20 км слаб. ливневой снег 10/10 600 м
[Cb cap]
-3.6 -4.8 91 -9 -9 1017.5 997.5
15 11.02 Ю 3 10 км слаб. ливневой снег 10/10 300 м
[Cb cap]
-3.8 -4.3 96 -9 -9 1018.8 998.8 -3.5 0.4
18 11.02 Ю 3 10 км слаб. переохл. морось (гололёд) [диам. гололёда 0 мм] 10/10 300 м
[St]
-4.1 -4.6 96 -10 -10 1019.0 998.9
21 11.02 Ю 4 10 км слаб. переохл. морось (гололёд) [диам. гололёда 1 мм] 10/10 300 м
[St]
-4.3 -4.9 96 -11 -11 1019.2 999.1
00 12.02 Ю 5
{10}
20 км {морось} [диам. гололёда 1 мм] 10/10 300 м
[St]
-4.9 -5.5 96 -12 -12 1019.0 998.9
03 12.02 Ю 4 20 км 10/10 300 м
[Sc]
-5.5 -6.0 96 -12 -12 1018.5 998.3 -5.5 0.3 59
06 12.02 Ю 4 21 км 10/10 300 м
[Sc]
-5.2 -5.8 96 -12 -12 1017.9 997.7 -5.5
09 12.02 Ю 4 22 км позёмок {снег} 10/10 300 м
[St]
-3.9 -5.2 91 -10 -10 1017.1 997.1
12 12.02 Ю 4 23 км позёмок {снег} 10/10 300 м
[Sc]
-3.2 -5.1 87 -9 -9 1016.9 996.9
15 12.02 Ю 4 20 км 10/10 300 м
[Sc]
-3.0 -4.6 89 -9 -9 1016.7 996.7 -3.0 0.0
18 12.02 Ю 4 20 км позёмок {ливн. осадки} 10/10 600 м
[Sc]
-3.2 -4.7 89 -9 -9 1016.4 996.4
21 12.02 Ю 3 10 км позёмок {ливн. осадки} 10/10 300 м
[Cb cap]
-3.2 -4.1 93 -9 -9 1015.9 996.0
00 13.02 Ю 4 10 км слаб. ливневой снег {метель} 10/10 300 м
[Cb cap]
-2.7 -3.4 95 -9 -9 1014.9 995.0
03 13.02 Ю 5 10 км слаб. ливневой снег {метель} 10/10 300 м
[Cb cap]
-2.8 -4.1 91 -10 -10 1014.5 994.6 -3.3 3 59
06 13.02 Ю 4
{10}
23 км позёмок {ливн. осадки} 10/10 600 м
[Cb cap]
-4.0 -5.8 87 -10 -10 1014.5 994.5 -4.0
09 13.02 Ю 4 10 км слаб. ливневой снег {метель} 10/10 600 м
[Cb cap]
-4.1 -5.6 89 -10 -10 1012.8 992.8
12 13.02 ЮВ 3 24 км позёмок {ливн. осадки} 10/10 600 м
[Sc]
-3.1 -8.0 69 -8 -8 1008.5 988.7
15 13.02 Ю 3 4000 м слаб. снег {метель} 10/0 300 м
[As op]
-4.4 -5.1 95 -10 -10 1006.8 986.9 -2.8 3
18 13.02 Ю 4
{10}
4000 м слаб. снег {метель} 10/0 300 м
[As op]
-4.3 -5.3 93 -11 -11 1006.2 986.4
21 13.02 ЮЗ 3 20 км {снег, метель} 10/10 600 м
[Sc]
-4.4 -5.6 91 -10 -10 1007.2 987.4
00 14.02 ЮЗ 3 10 км слаб. снег {метель} 10/0 600 м
[As op]
-4.5 -5.9 90 -10 -10 1008.9 989.0
03 14.02 З 2 20 км {снег} 10/10 600 м
[Sc]
-4.4 -5.3 93 -9 -9 1011.4 991.5 -4.7 3 60
06 14.02 СЗ 3 25 км позёмок {снег} 10/10 600 м
[Sc]
-6.1 -8.7 82 -12 -12 1015.2 995.0 -6.1
09 14.02 СЗ 3 27 км {метель} 10/10 600 м
[Sc]
-6.2 -8.9 81 -12 -12 1017.4 997.2
12 14.02 З 2 29 км {метель} 10/10 600 м
[Sc]
-6.4 -9.2 80 -11 -11 1018.7 998.5
15 14.02 ЮЗ 2 10 км слаб. ливневой снег 10/8 600 м
[Cb cap Ac trans Ci sp]
-8.5 -9.6 92 -13 -13 1019.8 999.4 -4.2 0.5
18 14.02 З 2 10 км слаб. ливневой снег 10/10 600 м
[Cb cap]
-8.4 -9.3 93 -13 -13 1020.1 999.6
21 14.02 ЮЗ 2 10 км слаб. ливневой снег 10/10 600 м
[Cb cap]
-8.3 -9.2 93 -13 -13 1019.4 999.0
00 15.02 Ю 2 20 км {ливн. осадки} 10/10 600 м
[Sc]
-7.8 -8.6 94 -12 -12 1016.6 996.3
03 15.02 Ю 4 10 км снежные зёрна 10/10 300 м
[St]
-7.0 -7.8 94 -14 -14 1011.6 991.5 -10.0 0.2 60
06 15.02 Ю 4 7000 м слаб. снег {метель} 10/0 300 м
[As op]
-6.6 -7.4 94 -13 -13 1005.2 985.3
09 15.02 ЮЗ 4 8000 м слаб. снег {метель} 10/10 300 м
[Frnb Ns]
-5.0 -5.7 95 -12 -12 1000.5 980.8
12 15.02 ЮЗ 2 12 км слаб. снег {метель} 10/0 300 м
[As op]
-3.0 -3.5 96 -7 -7 998.0 978.4
15 15.02 З 2 10 км слаб. переохл. морось (гололёд) [диам. гололёда 0 мм] 10/10 300 м
[St]
-1.1 -1.3 99 -5 -5 997.1 977.7 -1.1 7
18 15.02 З 3 10 км слаб. снег {морось} [диам. гололёда 1 мм] 10/0
[Ac As]
-0.1 -0.4 98 -5 -5 997.0 977.6
21 15.02 З 2 10 км слаб. снег 10/0
[Ac As]
0.0 -0.3 98 -4 -4 997.1 977.8
00 16.02 З 2 10 км слаб. снег 10/0
[Ac As]
+0.1 -0.4 96 -4 -4 997.4 978.1
03 16.02 З 3 10 км слаб. снег 10/0
[Ac As]
+0.2 -0.3 96 -5 -5 997.1 977.8 -1.1 2 63
06 16.02 С 6-12
{12}
8000 м слаб. снег {метель} 10/10 300 м
[Frnb Ac As]
-0.8 -1.3 96 -8 -8 1000.3 980.8
09 16.02 С 4
{14}
22 км позёмок {ливн. осадки, снег} 9/9 300 м
[Cb cap]
-0.8 -4.2 78 -6 -6 1003.3 983.8
12 16.02 СЗ 3
{12}
25 км позёмок {ливн. осадки} 9/9 600 м
[Cb cap]
-1.0 -5.0 74 -6 -6 1005.6 986.1
15 16.02 З 1
{12}
20 км {метель} 10/6 600 м
[Cb cap Ac inh]
-2.4 -5.3 80 -5 -5 1006.6 986.9 +0.3 2
18 16.02 ЮЗ 1 20 км {метель} 10/8 600 м
[Cb cap Ac trans]
-4.6 -5.5 93 -7 -7 1005.2 985.4
21 16.02 Ю 2 20 км 9/9 600 м
[Cb cap]
-5.0 -5.7 95 -9 -9 1002.4 982.6
00 17.02 Ю 2 20 км 10/0
[Ac inh]
-4.9 -5.8 93 -9 -9 997.0 977.3
03 17.02 ЮЗ 4 10 км слаб. снег 10/0
[Ac As]
-3.7 -4.3 96 -10 -10 991.4 971.9 -5.7 0.2 64
06 17.02 ЮЗ 3 4500 м снежные зёрна {морось} [диам. гололёда 1 мм] 10/10 300 м
[St]
-3.2 -3.6 97 -9 -9 987.0 967.6
09 17.02 ЮЗ 3 3500 м снег 10/10 300 м
[Frnb Ns]
-1.4 -1.8 97 -7 -7 984.4 965.2
12 17.02 З 3 22 км {снег} 10/10 300 м
[Sc]
+0.3 -1.6 87 -4 -4 983.8 964.7
15 17.02 З 3 20 км 10/10 600 м
[Sc]
-0.7 -2.4 88 -6 -6 984.0 964.9 +0.6 2
18 17.02 З 3 10 км слаб. ливневой снег 10/5 600 м
[Cb cap Ac und]
-1.2 -2.4 92 -6 -6 983.9 964.8
21 17.02 СЗ 4 10 км слаб. ливневой снег {метель} 10/8 600 м
[Cb cap Ac trans]
-1.0 -2.3 91 -7 -7 985.8 966.6
00 18.02 СЗ 3
{11}
10 км слаб. ливневой снег {метель} 10/10 300 м
[Cb cap]
-1.6 -2.3 95 -7 -7 988.8 969.5
03 18.02 С 7-15
{17}
4000 м слаб. ливневой снег {метель} 10/10 300 м
[Cb cap]
-4.5 -7.5 80 -13 -13 994.4 974.8 -4.6 2 64
06 18.02 С 7-15
{19}
8000 м слаб. ливневой снег {метель} 10/10 300 м
[Cb cap]
-5.8 -10.4 70 -14 -14 999.5 979.7 -5.8
09 18.02 С 8-16
{17}
14 км метель {ливн. осадки} 5/5 600 м
[Cb cap]
-6.9 -14.6 54 -16 -15 1004.5 984.5

 

Местоположение метеостанции Пыщуг (Костромская область, Россия): широта 58.88 долгота 45.71 высота над уровнем моря 157 м.

В архиве по умолчанию представлена погода в Пыщуге за последнюю неделю. Архивные данные за месяц целиком и за предыдущие месяцы, начиная с января 2011 года, Вы можете получить, выбрав интересующий диапазон дат из раскрывающегося списка и нажав кнопку "Ввод!".


*Определитесь, кто Вы:
робот инопланетянин человек

Внимание! Время в таблицах - всемирное. Для получения местного времени необходимо прибавить поправку, которая равна 3 ч.

Смотрите также архив погоды в соседних городах и на ближайших метеорологических станциях:

Погода в Шарье (Костромская область, Россия) (58 км)
Погода в Вохме (Костромская область, Россия) (61 км)
Погода в Никольске (Вологодская область, Россия) (74 км)
Погода в Кологриве (Костромская область, Россия) (80 км)
Погода в Мантурово (Костромская область, Россия) (82 км)
Погода в Шабалино (Кировская область, Россия) (104 км)
Погода в Ветлуге (Нижегородская область, Россия) (115 км)
Погода в Даровском (Кировская область, Россия) (131 км)
Погода в Шахунье (Нижегородская область, Россия) (146 км)
Погода в Николо-Поломе (Костромская область, Россия) (147 км)

Пояснения к столбцам:

Ветер - указаны скорость ветра в м/с - средняя за 10 мин, порывы в срок и между сроками (в фигурных скобках) и направление, откуда дует ветер: С - северный, СВ - северо-восточный, В - восточный, ЮВ - юго-восточный, Ю - южный, ЮЗ - юго-западный, З - западный, СЗ - северо-западный.
Видимость - горизонтальная дальность видимости в метрах или километрах. При видимости от 1 до 10 км при отсутствии осадков обычно наблюдается дымка, при ухудшении видимости до 1 км и менее - туман. В сухую погоду видимость может ухудшаться дымом, пылью или мглою.
Явления - указаны атмосферные явления, наблюдавшиеся в срок или в последний час перед сроком; фигурными скобками обозначены явления, наблюдавшиеся между сроками (за 1-3 часа до срока); квадратными скобками обозначены град или гололедные отложения с указанием их диаметра в мм.
Облачность - указаны через наклонную черту общая и нижняя облачность в баллах и высота нижней границы облаков в метрах; квадратными скобками обозначены формы облаков: Ci - перистые, Cs - перисто-слоистые, Cc - перисто-кучевые, Ac - высококучевые, As - высокослоистые, Sc - слоисто-кучевые, Ns - слоисто-дождевые, Cu - кучевые, Cb - кучево-дождевые. Подробнее классификацию облаков см. в Атласе облаков (PDF).
T - Температура воздуха - температура, измеренная на высоте 2 м над землей.
Td - Температура точки росы - температура, при понижении до которой содержащийся в воздухе водяной пар достигнет насыщения.
f - Относительная влажность воздуха - влажноcть воздуха, измеренная на высоте 2 м над землей.
Te - Эффективная температура - температура, которую ощущает одетый по сезону человек в тени. Характеристика душности погоды. При расчете учитывается влияние влажности воздуха и скорости ветра на теплоощущения человека.
Tes - Эффективная температура на солнце - температура, которую ощущает человек, с поправкой на солнечный нагрев. Характеристика знойности погоды. Зависит от высоты солнца над горизонтом, облачности и скорости ветра. Ночью, в пасмурную погоду, а также при ветре 12 м/с и более поправка равна нулю.
P - Атмосферное давление - приведенное к уровню моря атмосферное давление.
Po - Атмосферное давление - измеренное на уровне метеостанции атмосферное давление.
Tmin - Минимальная температура - минимум температуры воздуха на высоте 2 м над землей.
Tmax - Максимальная температура - максимум температуры воздуха на высоте 2 м над землей.
R - Количество осадков - Количество выпавших осадков за период времени, мм. При наведении курсора мыши на число - период времени, за который выпало указанное количество осадков.
R24 - Количество осадков - Количество выпавших осадков за 24 часа, мм.
S - Снежный покров - Высота снежного покрова, см. При наведении курсора мыши на число - состояние снежного покрова и степень покрытия местности в баллах.